Tracking 28096 objects as of 29-Sep-2023
HD Live streaming from Space Station
objects crossing your sky now

STARLINK-6348

Track STARLINK-6348 now!
10-day predictions
STARLINK-6348 is classified as:


NORAD ID: 57360
Int'l Code: 2023-099AJ
Perigee: 559.3 km
Apogee: 561.3 km
Inclination: 43.0 °
Period: 95.7 minutes
Semi major axis: 6931 km
RCS: Unknown
Launch date: July 16, 2023
Source: United States (US)
Launch site: AIR FORCE EASTERN TEST RANGE (AFETR)
Your satellite tracking list
Your tracking list is empty




NASA's NSSDC Master Catalog

Two Line Element Set (TLE):
1 57360U 23099AJ  23271.91668981  .00028582  00000-0  20165-2 0  9998
2 57360  42.9991  47.3729 0001491 266.4449 185.5690 15.04459279  5981
Source of the keplerian elements: AFSPC